FW8254 Weather Reports


Display with metric or nautical units.
time (UTC)temp
F
wind
direction
speed
MPH
gust
MPH
rain 1hr
in
rain 24hr
in
rain mn
in
humidity
%
barometer
mb
20260905185545 97 55 1.0 6.0 0.00 0.00 0.00 56 1004.7
20260905185044 97 42 0.0 2.0 0.00 0.00 0.00 54 1004.8
20260905184539 95 36 0.0 2.0 0.00 0.00 0.00 55 1005.1
20260905184038 95 10 2.0 3.0 0.00 0.00 0.00 55 1004.9
20260905183537 95 30 1.0 2.0 0.00 0.00 0.00 56 1004.9
20260905183033 95 24 2.0 2.0 0.00 0.00 0.00 58 1005.3
20260905182527 94 21 1.0 2.0 0.00 0.00 0.00 57 1005.4
20260905182027 95 8 1.0 2.0 0.00 0.00 0.00 57 1005.4
20260905181522 95 49 1.0 3.0 0.00 0.00 0.00 57 1005.6
20260905181021 96 27 1.0 3.0 0.00 0.00 0.00 55 1005.7
20260905180516 96 31 2.0 2.0 0.00 0.00 0.00 56 1005.8
20260905180011 95 45 0.0 1.0 0.00 0.00 0.00 58 1005.9
20260905175510 94 43 0.0 2.0 0.00 0.00 0.00 60 1005.7
20260905175006 94 73 2.0 3.0 0.00 0.00 0.00 59 1005.8
20260905174501 94 59 1.0 3.0 0.00 0.00 0.00 60 1006.0
20260905173957 94 47 1.0 3.0 0.00 0.00 0.00 61 1006.0
20260905173453 93 65 3.0 6.0 0.00 0.00 0.00 60 1006.2
20260905172948 93 54 1.0 3.0 0.00 0.00 0.00 61 1006.4
20260905172446 93 29 0.0 1.0 0.00 0.00 0.00 61 1006.3
20260905171942 93 25 0.0 1.0 0.00 0.00 0.00 59 1006.6
20260905171439 92 26 0.0 1.0 0.00 0.00 0.00 60 1006.5
20260905170935 92 15 1.0 2.0 0.00 0.00 0.00 61 1006.3
20260905170431 92 20 0.0 2.0 0.00 0.00 0.00 60 1006.7
20260905165930 92 21 1.0 2.0 0.00 0.00 0.00 61 1006.7
20260905165425 91 28 0.0 2.0 0.00 0.00 0.00 59 1007.0
20260905164920 91 31 0.0 0.0 0.00 0.00 0.00 61 1006.9
20260905164414 91 20 0.0 1.0 0.00 0.00 0.00 62 1007.2
20260905163909 91 19 1.0 2.0 0.00 0.00 0.00 63 1007.2
20260905163406 90 24 1.0 2.0 0.00 0.00 0.00 63 1007.6
20260905162902 90 16 2.0 3.0 0.00 0.00 0.00 64 1007.2
20260905162356 90 25 1.0 3.0 0.00 0.00 0.00 65 1007.2
20260905161851 90 27 0.0 3.0 0.00 0.00 0.00 67 1007.5
20260905161350 89 30 0.0 1.0 0.00 0.00 0.00 67 1007.4
20260905160848 89 24 1.0 1.0 0.00 0.00 0.00 67 1007.5
20260905160343 89 21 1.0 3.0 0.00 0.00 0.00 66 1007.5
20260905155837 88 312 3.0 5.0 0.00 0.00 0.00 69 1007.5
20260905155331 88 359 2.0 5.0 0.00 0.00 0.00 70 1007.4
20260905154830 88 30 1.0 2.0 0.00 0.00 0.00 70 1007.6
20260905154326 87 9 3.0 5.0 0.00 0.00 0.00 70 1007.7
20260905153821 87 343 3.0 5.0 0.00 0.00 0.00 71 1007.7
20260905153318 87 284 3.0 5.0 0.00 0.00 0.00 72 1007.6
20260905152817 87 358 3.0 6.0 0.00 0.00 0.00 70 1007.9
20260905152316 87 351 2.0 3.0 0.00 0.00 0.00 71 1007.9
20260905151812 86 0 3.0 3.0 0.00 0.00 0.00 72 1008.0
20260905151307 86 315 3.0 6.0 0.00 0.00 0.00 72 1008.0
20260905150802 86 0 2.0 3.0 0.00 0.00 0.00 74 1008.0
20260905150302 86 326 4.0 6.0 0.00 0.00 0.00 73 1008.2
20260905145759 86 317 5.0 6.0 0.00 0.00 0.00 74 1008.1
20260905145253 85 314 2.0 3.0 0.00 0.00 0.00 75 1008.3
20260905144752 85 329 4.0 6.0 0.00 0.00 0.00 74 1008.3
20260905144248 85 342 3.0 5.0 0.00 0.00 0.00 74 1007.9
20260905143746 84 353 3.0 3.0 0.00 0.00 0.00 76 1008.2
20260905143241 84 8 2.0 3.0 0.00 0.00 0.00 77 1008.2
20260905142739 84 352 2.0 5.0 0.00 0.00 0.00 78 1008.3
20260905142234 84 308 5.0 7.0 0.00 0.00 0.00 78 1008.4
20260905141730 83 319 5.0 6.0 0.00 0.00 0.00 79 1008.3
20260905141226 83 307 5.0 6.0 0.00 0.00 0.00 79 1008.5
20260905140721 83 355 4.0 5.0 0.00 0.00 0.00 80 1008.2
20260905140220 82 308 5.0 7.0 0.00 0.00 0.00 81 1008.3
20260905135715 82 315 4.0 5.0 0.00 0.00 0.00 82 1008.1
20260905135211 82 334 4.0 5.0 0.00 0.00 0.00 82 1008.3
20260905134710 82 320 3.0 5.0 0.00 0.00 0.00 83 1008.1
20260905134210 81 349 2.0 3.0 0.00 0.00 0.00 84 1008.2
20260905133705 80 314 4.0 6.0 0.00 0.00 0.00 84 1008.4
20260905133200 80 27 1.0 3.0 0.00 0.00 0.00 84 1008.5
20260905132659 80 30 3.0 3.0 0.00 0.00 0.00 85 1008.6
20260905132154 79 11 1.0 2.0 0.00 0.00 0.00 86 1008.8
20260905131649 79 6 1.0 3.0 0.00 0.00 0.00 86 1008.7
20260905131150 78 21 3.0 3.0 0.00 0.00 0.00 87 1008.7
20260905130644 78 356 3.0 5.0 0.00 0.00 0.00 87 1008.6
20260905130144 77 308 4.0 5.0 0.00 0.00 0.00 88 1008.8
20260905125638 77 8 2.0 3.0 0.00 0.00 0.00 89 1008.6
20260905125134 77 352 3.0 3.0 0.00 0.00 0.00 90 1008.7
20260905124630 76 21 3.0 5.0 0.00 0.00 0.00 90 1008.7
20260905124126 76 321 3.0 5.0 0.00 0.00 0.00 91 1008.6
20260905123621 76 30 2.0 3.0 0.00 0.00 0.00 91 1008.6
20260905123118 76 350 2.0 3.0 0.00 0.00 0.00 91 1008.5
20260905122613 76 5 3.0 5.0 0.00 0.00 0.00 91 1008.6
20260905122113 76 348 2.0 3.0 0.00 0.00 0.00 91 1008.5
20260905121607 76 358 3.0 3.0 0.00 0.00 0.00 92 1008.5
20260905121103 75 340 3.0 5.0 0.00 0.00 0.00 91 1008.4
20260905120602 75 39 2.0 2.0 0.00 0.00 0.00 92 1008.2
20260905120057 75 344 3.0 3.0 0.00 0.00 0.00 92 1008.3
20260905115556 75 9 2.0 3.0 0.00 0.00 0.00 92 1008.5
20260905115051 75 0 3.0 3.0 0.00 0.00 0.00 92 1008.3
20260905114550 75 355 2.0 2.0 0.00 0.00 0.00 92 1008.2
20260905114049 75 359 1.0 3.0 0.00 0.00 0.00 92 1008.3
20260905113544 75 350 2.0 3.0 0.00 0.00 0.00 92 1008.2
20260905113039 75 356 3.0 3.0 0.00 0.00 0.00 92 1008.3
20260905112535 75 27 1.0 2.0 0.00 0.00 0.00 92 1008.2
20260905112030 75 10 2.0 3.0 0.00 0.00 0.00 92 1008.2
20260905111525 75 348 3.0 3.0 0.00 0.00 0.00 92 1008.1
20260905111024 75 30 0.0 1.0 0.00 0.00 0.00 92 1008.0
20260905110523 75 32 0.0 2.0 0.00 0.00 0.00 92 1007.8
20260905110019 75 39 0.0 1.0 0.00 0.00 0.00 92 1007.9
20260905105513 75 3 2.0 2.0 0.00 0.00 0.00 92 1007.9
20260905105013 75 315 2.0 3.0 0.00 0.00 0.00 92 1007.8
20260905104509 75 34 0.0 1.0 0.00 0.00 0.00 91 1007.8
20260905104008 75 33 0.0 0.0 0.00 0.00 0.00 91 1007.7
20260905103503 75 34 0.0 1.0 0.00 0.00 0.00 91 1007.7
20260905102959 75 47 1.0 1.0 0.00 0.00 0.00 91 1007.5
20260905102455 75 33 0.0 1.0 0.00 0.00 0.00 91 1007.5
20260905101950 75 47 0.0 0.0 0.00 0.00 0.00 90 1007.7
20260905101449 75 47 0.0 0.0 0.00 0.00 0.00 90 1007.5
20260905100948 75 46 0.0 1.0 0.00 0.00 0.00 90 1007.5
20260905100444 75 45 0.0 0.0 0.00 0.00 0.00 90 1007.6
20260905095943 75 44 0.0 0.0 0.00 0.00 0.00 90 1007.4
20260905095438 75 44 0.0 0.0 0.00 0.00 0.00 90 1007.5
20260905094933 75 43 0.0 0.0 0.00 0.00 0.00 90 1007.5
20260905094429 75 35 0.0 0.0 0.00 0.00 0.00 90 1007.3
20260905093927 75 41 0.0 1.0 0.00 0.00 0.00 90 1007.5
20260905093423 76 36 0.0 1.0 0.00 0.00 0.00 90 1007.4
20260905092918 76 35 1.0 1.0 0.00 0.00 0.00 90 1007.5
20260905092413 76 5 2.0 2.0 0.00 0.00 0.00 90 1007.7
20260905091908 76 35 1.0 2.0 0.00 0.00 0.00 90 1007.6
20260905091403 76 29 1.0 1.0 0.00 0.00 0.00 90 1007.5
20260905090902 76 46 0.0 1.0 0.00 0.00 0.00 89 1007.7
20260905090358 76 44 0.0 1.0 0.00 0.00 0.00 89 1007.6
20260905085856 76 46 1.0 1.0 0.00 0.00 0.00 89 1007.7
20260905085351 76 45 0.0 0.0 0.00 0.00 0.00 89 1007.6
20260905084848 76 44 0.0 0.0 0.00 0.00 0.00 89 1007.8
20260905084346 76 43 0.0 0.0 0.00 0.00 0.00 89 1007.7
20260905083841 76 43 0.0 0.0 0.00 0.00 0.00 89 1007.7
20260905083337 77 37 0.0 0.0 0.00 0.00 0.00 89 1007.7
20260905082832 77 44 1.0 2.0 0.00 0.00 0.00 89 1007.6
20260905082328 77 30 0.0 1.0 0.00 0.00 0.00 89 1007.8
20260905081823 77 24 1.0 2.0 0.00 0.00 0.00 89 1007.8
20260905081318 77 22 1.0 2.0 0.00 0.00 0.00 89 1007.6
20260905080817 77 18 1.0 3.0 0.00 0.00 0.00 88 1007.4
20260905080312 77 12 2.0 2.0 0.00 0.00 0.00 89 1007.5
20260905075811 77 34 0.0 1.0 0.00 0.00 0.00 88 1007.8
20260905075310 77 42 0.0 1.0 0.00 0.00 0.00 88 1007.7
20260905074809 77 37 0.0 1.0 0.00 0.00 0.00 88 1007.8
20260905074306 78 37 0.0 1.0 0.00 0.00 0.00 88 1007.7
20260905073801 78 19 1.0 2.0 0.00 0.00 0.00 88 1007.6
20260905073255 78 29 1.0 1.0 0.00 0.00 0.00 87 1007.6
20260905072750 78 30 1.0 2.0 0.00 0.00 0.00 87 1007.7
20260905072245 78 27 1.0 2.0 0.00 0.00 0.00 87 1007.5
20260905071742 78 11 2.0 2.0 0.00 0.00 0.00 87 1007.5
20260905071237 78 17 2.0 2.0 0.00 0.00 0.00 87 1007.6
20260905070732 78 30 1.0 2.0 0.00 0.00 0.00 87 1007.6
20260905070229 79 340 2.0 2.0 0.00 0.00 0.00 86 1007.6
20260905065727 78 349 3.0 3.0 0.00 0.00 0.00 87 1007.8
20260905065221 78 34 0.0 1.0 0.00 0.00 0.00 86 1007.7
20260905064716 78 39 0.0 0.0 0.00 0.00 0.00 86 1007.8
20260905064212 79 40 1.0 2.0 0.00 0.00 0.00 86 1007.7
20260905063710 79 18 1.0 2.0 0.00 0.00 0.00 86 1007.8
20260905063207 79 343 2.0 2.0 0.00 0.00 0.00 86 1007.8
20260905062703 78 33 0.0 1.0 0.00 0.00 0.00 86 1007.9
20260905062202 78 32 0.0 1.0 0.00 0.00 0.00 86 1007.9
20260905061656 79 45 1.0 1.0 0.00 0.00 0.00 85 1007.8
20260905061156 78 47 0.0 0.0 0.00 0.00 0.00 85 1008.0
20260905060652 78 47 0.0 0.0 0.00 0.00 0.00 85 1008.3
20260905060148 79 47 0.0 0.0 0.00 0.00 0.00 85 1008.1
20260905055646 79 47 0.0 1.0 0.00 0.00 0.00 84 1008.3
20260905055142 79 47 0.0 0.0 0.00 0.00 0.00 84 1008.4
20260905054637 79 47 0.0 0.0 0.00 0.00 0.00 84 1008.3
20260905054133 79 47 0.0 0.0 0.00 0.00 0.00 84 1008.4
20260905053632 79 47 0.0 0.0 0.00 0.00 0.00 84 1008.5
20260905053128 79 47 0.0 0.0 0.00 0.00 0.00 84 1008.7
20260905052627 79 47 0.0 0.0 0.00 0.00 0.00 84 1008.5
20260905052122 79 47 0.0 0.0 0.00 0.00 0.00 83 1008.3
20260905051617 79 47 0.0 0.0 0.00 0.00 0.00 83 1008.8
20260905051114 79 47 0.0 0.0 0.00 0.00 0.00 83 1008.5
20260905050609 79 47 0.0 0.0 0.00 0.00 0.00 83 1008.7
20260905045601 80 48 0.0 0.0 0.00 0.00 0.00 83 1008.4
20260905045056 79 47 0.0 0.0 0.00 0.00 0.00 82 1008.7
20260905044555 79 47 0.0 0.0 0.00 0.00 0.00 82 1008.7
20260905044050 80 47 0.0 0.0 0.00 0.00 0.00 82 1008.7
20260905043549 80 47 0.0 0.0 0.00 0.00 0.00 82 1008.8
20260905043045 80 47 0.0 0.0 0.00 0.00 0.00 81 1008.9
20260905042543 80 47 0.0 0.0 0.00 0.00 0.00 81 1008.9
20260905042039 80 47 0.0 1.0 0.00 0.00 0.00 81 1008.8
20260905041534 80 47 0.0 0.0 0.00 0.00 0.00 81 1008.8
20260905041030 80 47 0.0 0.0 0.00 0.00 0.00 81 1008.7
20260905040529 80 47 0.0 0.0 0.00 0.00 0.00 81 1008.6
20260905040028 80 47 0.0 0.0 0.00 0.00 0.00 81 1008.7
20260905035523 80 47 0.0 0.0 0.00 0.00 0.00 80 1008.8
20260905035020 80 47 0.0 0.0 0.00 0.00 0.00 79 1008.9
20260905034516 80 47 0.0 0.0 0.00 0.00 0.00 79 1009.0
20260905034015 80 47 0.0 1.0 0.00 0.00 0.00 79 1008.9
20260905033509 81 47 0.0 0.0 0.00 0.00 0.00 78 1009.0
20260905033005 81 47 0.0 0.0 0.00 0.00 0.00 78 1009.1
20260905032500 81 47 0.0 0.0 0.00 0.00 0.00 77 1008.7
20260905031954 81 47 0.0 0.0 0.00 0.00 0.00 76 1009.0
20260905031450 82 47 0.0 0.0 0.00 0.00 0.00 76 1009.0
20260905030945 82 47 0.0 0.0 0.00 0.00 0.00 76 1009.1
20260905030440 82 47 0.0 1.0 0.00 0.00 0.00 76 1008.9
20260905025939 82 47 0.0 0.0 0.00 0.00 0.00 76 1009.1
20260905025435 82 47 0.0 0.0 0.00 0.00 0.00 75 1008.9
20260905024932 82 47 0.0 0.0 0.00 0.00 0.00 75 1009.0
20260905024431 82 47 0.0 1.0 0.00 0.00 0.00 75 1009.3
20260905023927 82 47 0.0 1.0 0.00 0.00 0.00 75 1009.0
20260905023422 82 47 0.0 0.0 0.00 0.00 0.00 75 1009.1
20260905022921 82 47 0.0 0.0 0.00 0.00 0.00 75 1009.0
20260905022417 82 47 0.0 1.0 0.00 0.00 0.00 75 1009.1
20260905021911 81 47 0.0 1.0 0.00 0.00 0.00 76 1009.1
20260905021406 80 46 0.0 0.0 0.00 0.00 0.00 78 1008.7
20260905020901 81 46 0.0 0.0 0.00 0.00 0.00 81 1008.8
20260905020400 81 46 0.0 0.0 0.00 0.00 0.00 81 1008.9
20260905015855 82 45 0.0 0.0 0.00 0.00 0.00 82 1008.7
20260905015354 82 45 0.0 0.0 0.00 0.00 0.00 82 1008.8
20260905014853 82 45 0.0 0.0 0.00 0.00 0.00 82 1009.2
20260905014349 82 45 0.0 0.0 0.00 0.00 0.00 82 1008.7
20260905013844 82 45 0.0 0.0 0.00 0.00 0.00 81 1008.8
20260905013340 82 45 0.0 0.0 0.00 0.00 0.00 81 1008.7
20260905012835 82 46 0.0 0.0 0.00 0.00 0.00 81 1008.7
20260905012330 83 46 0.0 0.0 0.00 0.00 0.00 81 1008.7
20260905011827 83 46 0.0 1.0 0.00 0.00 0.00 81 1008.7
20260905011328 83 45 0.0 0.0 0.00 0.00 0.00 80 1008.6
20260905010823 83 45 0.0 0.0 0.00 0.00 0.00 79 1008.6
20260905010318 84 45 0.0 0.0 0.00 0.00 0.00 79 1008.5
20260905005814 84 45 0.0 0.0 0.00 0.00 0.00 79 1008.5
20260905005309 84 45 1.0 1.0 0.00 0.00 0.00 78 1008.5
20260905004804 85 45 0.0 0.0 0.00 0.00 0.00 77 1008.8
20260905004259 85 45 0.0 0.0 0.00 0.00 0.00 76 1008.2
20260905003754 85 45 0.0 0.0 0.00 0.00 0.00 75 1008.4
20260905003250 86 45 0.0 0.0 0.00 0.00 0.00 74 1008.2
20260905002746 86 45 0.0 0.0 0.00 0.00 0.00 72 1008.3
20260905002245 87 45 0.0 0.0 0.00 0.00 0.00 71 1008.2
20260905001740 87 45 0.0 0.0 0.00 0.00 0.00 69 1007.9
20260905001239 87 45 0.0 0.0 0.00 0.00 0.00 68 1008.2
20260905000735 87 45 0.0 0.0 0.00 0.00 0.00 67 1008.0
20260905000233 88 45 0.0 0.0 0.00 0.00 0.00 66 1007.9
20260904235726 88 45 0.0 0.0 0.00 0.00 0.00 61 1007.9
20260904235220 88 46 0.0 0.0 0.00 0.00 0.00 58 1007.9
20260904234715 89 46 0.0 0.0 0.00 0.00 0.00 57 1007.7
20260904234211 90 46 0.0 0.0 0.00 0.00 0.00 56 1007.9
20260904233706 90 46 0.0 0.0 0.00 0.00 0.00 55 1007.9
20260904233202 91 46 0.0 0.0 0.00 0.00 0.00 55 1007.7
20260904232659 91 46 0.0 0.0 0.00 0.00 0.00 55 1007.8
20260904232155 91 46 0.0 0.0 0.00 0.00 0.00 54 1007.6
20260904231650 92 46 0.0 0.0 0.00 0.00 0.00 55 1007.8
20260904231145 92 46 0.0 0.0 0.00 0.00 0.00 54 1007.6
20260904230644 93 46 0.0 0.0 0.00 0.00 0.00 54 1007.8
20260904230140 93 46 0.0 0.0 0.00 0.00 0.00 53 1007.9
20260904225638 93 46 0.0 0.0 0.00 0.00 0.00 53 1007.8
20260904225133 93 46 0.0 0.0 0.00 0.00 0.00 52 1007.7
20260904224627 94 46 0.0 0.0 0.00 0.00 0.00 52 1007.7
20260904224122 94 46 0.0 1.0 0.00 0.00 0.00 51 1007.7
20260904223621 94 46 0.0 1.0 0.00 0.00 0.00 50 1007.5
20260904223116 94 47 0.0 0.0 0.00 0.00 0.00 52 1007.7
20260904222613 94 47 0.0 0.0 0.00 0.00 0.00 51 1007.4
20260904222108 94 47 0.0 0.0 0.00 0.00 0.00 50 1007.6
20260904221608 94 47 0.0 1.0 0.00 0.00 0.00 49 1007.7
20260904221108 94 47 0.0 1.0 0.00 0.00 0.00 49 1007.3
20260904220602 94 47 0.0 1.0 0.00 0.00 0.00 49 1007.5
20260904220058 94 46 0.0 1.0 0.00 0.00 0.00 50 1007.5
20260904215552 94 47 1.0 1.0 0.00 0.00 0.00 49 1007.7
20260904215048 94 49 0.0 0.0 0.00 0.00 0.00 51 1007.6
20260904214543 94 49 0.0 0.0 0.00 0.00 0.00 50 1007.5
20260904214038 94 50 0.0 2.0 0.00 0.00 0.00 50 1007.7
20260904213536 94 44 0.0 2.0 0.00 0.00 0.00 50 1007.9
20260904213034 94 60 1.0 2.0 0.00 0.00 0.00 50 1007.7
20260904212532 94 42 0.0 1.0 0.00 0.00 0.00 51 1007.8
20260904212028 94 50 1.0 1.0 0.00 0.00 0.00 50 1007.8
20260904211528 94 50 0.0 1.0 0.00 0.00 0.00 50 1007.6
20260904211023 94 51 0.0 1.0 0.00 0.00 0.00 51 1007.7
20260904210523 94 46 0.0 1.0 0.00 0.00 0.00 51 1007.8
20260904210019 95 34 1.0 1.0 0.00 0.00 0.00 51 1007.7
20260904205514 94 36 0.0 1.0 0.00 0.00 0.00 51 1007.7
20260904205011 95 42 0.0 2.0 0.00 0.00 0.00 50 1007.9
20260904204506 95 45 0.0 1.0 0.00 0.00 0.00 51 1008.1
20260904204002 94 49 1.0 2.0 0.00 0.00 0.00 51 1008.0
20260904203458 95 40 0.0 1.0 0.00 0.00 0.00 52 1008.2
20260904202954 94 47 1.0 1.0 0.00 0.00 0.00 51 1008.0
20260904202450 95 29 0.0 2.0 0.00 0.00 0.00 52 1008.3
20260904201946 95 43 1.0 5.0 0.00 0.00 0.00 52 1008.4
20260904201440 95 46 1.0 1.0 0.00 0.00 0.00 50 1008.5
20260904200936 95 32 0.0 1.0 0.00 0.00 0.00 50 1008.8
20260904200434 95 36 1.0 1.0 0.00 0.00 0.00 50 1008.7
20260904195930 95 35 1.0 1.0 0.00 0.00 0.00 51 1008.7
20260904195428 95 34 0.0 1.0 0.00 0.00 0.00 52 1008.7
20260904194927 95 38 0.0 2.0 0.00 0.00 0.00 52 1008.9
20260904194427 95 33 0.0 2.0 0.00 0.00 0.00 52 1008.9
20260904193922 95 39 1.0 2.0 0.00 0.00 0.00 52 1008.8
20260904193418 96 36 1.0 3.0 0.00 0.00 0.00 53 1009.2
20260904192914 95 22 0.0 3.0 0.00 0.00 0.00 53 1009.3
20260904192409 95 35 2.0 3.0 0.00 0.00 0.00 55 1009.4
20260904191905 96 55 2.0 5.0 0.00 0.00 0.00 54 1009.4
20260904191401 95 26 0.0 3.0 0.00 0.00 0.00 55 1009.3
20260904190857 95 30 0.0 2.0 0.00 0.00 0.00 56 1009.4
20260904190352 94 31 1.0 3.0 0.00 0.00 0.00 55 1009.6
20260904185849 94 31 2.0 3.0 0.00 0.00 0.00 56 1009.6